Powrót do katalogu

FENGYUN 1C DEB

AktywnySSO
NORAD 31161·DEBRIS·🇨🇳 China

Wystrzelony May 10, 1999 z Taiyuan Satellite Launch Center

Loading…

Następne Przeloty (najbliższe 24 godziny)

TLE

ŚwieżeSource: Space-Track

Epoka: Sep 13, 2026, 08:04 UTC

1 31161U 99025BHP 26256.33672454  .00000376  00000-0  23504-3 0  9995
2 31161  98.7319 274.8317 0067198 293.0175  66.3918 14.09531080999709

Śledź FENGYUN 1C DEB w czasie rzeczywistym z AllMySat

Download on the App Store